PPR-pyyntö

Ennakkolupa on pakollinen lentoonlähtöjä ja laskuja varten. Pyydä ennakkolupa tästä.

Laskukierrosvaraus

Tee ensin PPR-pyyntö, sitten vasta laskukierrosvaraus. Hinta 5 € / 15 min.

Aerodrome Info

Updated 20 JAN 2018 09:18 LT

  • SNOW ON RWY, TWY and APN
  • PLOUGHING DONE.
  • TAXI J-M ALLOWED DUE TO ICE ON APN 2

Contact duty officer at +358 20 7545 129 for more information.

Weather


Helsinki Malmi lentokenttä
AWS ILHF 212200Z AUTO 19001KT 9999 -SHSN SCT032 M10/M11 Q1014=

METAR EFHK 212150Z 29002KT 9999 -SN FEW020 SCT033 BKN120 M10/M12 Q1013 NOSIG=
TAF EFHK 212028Z 2121/2221 30004KT 9999 -SN FEW030 BKN120 TEMPO 2121/2124 5000 BKN008 TEMPO 2124/2205 2500 -SN BKN004 BECMG 2205/2207 BKN014 TEMPO 2207/2215 FEW014 BKN030=

Helsinki-Malmin lentoasema

Tervetuloa Helsinki-Malmin lentokentälle

Malmin lentokenttäyhdistys ry on yleishyödyllinen yhdistys, joka toimii Suomen vilkkaimman yleisilmailukentän, Helsinki-Malmin operaattorina. Yhdistyksen toiminnassa ovat mukana kentällä toimivat yhteisöt sekä suuri joukko yleisilmailijoita.

Malmin lentokentän toiminta rahoitetaan jäsen- ja kausikorttimaksuin. Ole mukana jatkamassa Malmin lentotoimintaa ja liity jäseneksi!